• Join FlightAware (Why Join?)
  • Login
  • US Flag GB Flag 
21:41 EDT


 

Airport Tracker/Info


-or-


 

Live Flight TrackerFlight Track Log ✈ UAL4236 ✈ 19-Apr-2013 ✈ KIAH - KELP

Flight Track Log - Related Links

Times and Time Zones

All times are in EDT time to prevent confusion due to time zone crossing. See the UAL4236 flight status page for this flight to view local times or setup timezone preferences in your user account.

Time Position Orientation Groundspeed Altitude Reporting Facility
EDT Latitude Longitude Course Direction KTS MPH feet Rate Location/Type
10:00 29.9817 -95.3556 276° West 151 174 800  Level Houston Center
10:02 29.9689 -95.4681 263° West 250 288 3,800 1,380 Climbing Houston Center
10:03 30.0157 -95.6432 279° West  Level FlightAware Approximate
10:03 29.9539 -95.5350 256° West 253 291 4,400  Level Houston Center
10:03 29.9522 -95.5578 265° West 250 288 5,200 2,460 Climbing Houston Center
10:04 30.0275 -95.7469 277° West  Level FlightAware Approximate
10:04 29.9703 -95.6308 286° West 239 275 7,700  Level Houston Center
10:05 30.0376 -95.8508 276° West  Level FlightAware Approximate
10:05 29.9869 -95.7017 285° West 231 266 10,100  Level Houston Center
10:06 30.0047 -95.7783 285° West 248 285 11,300 1,020 Climbing Houston Center
10:07 30.0253 -95.8686 285° West 287 330 12,300 960 Climbing Houston Center
10:08 30.0481 -95.9650 285° West 309 356 13,400 960 Climbing Houston Center
10:09 30.0728 -96.0717 285° West 325 374 14,400 960 Climbing Houston Center
10:10 30.0889 -96.1767 280° West 333 383 15,400 1,080 Climbing Houston Center
10:11 30.1083 -96.3039 280° West 337 388 16,700 1,140 Climbing Houston Center
10:12 30.1247 -96.4150 280° West 340 391 17,800 960 Climbing Houston Center
10:13 30.1422 -96.5244 281° West 342 394 18,700 1,020 Climbing Houston Center
10:14 30.1581 -96.6344 279° West 344 396 20,000 1,200 Climbing Houston Center
10:15 30.1747 -96.7425 280° West 339 390 21,200 1,140 Climbing Houston Center
10:16 30.1914 -96.8522 280° West 342 394 22,400 1,140 Climbing Houston Center
10:17 30.2081 -96.9606 280° West 337 388 23,600 1,200 Climbing Houston Center
10:18 30.2242 -97.0683 280° West 337 388 24,900 1,200 Climbing Houston Center
10:19 30.2383 -97.1747 279° West 332 382 26,100 1,200 Climbing Houston Center
10:20 30.2575 -97.2953 280° West 324 373 27,500 1,200 Climbing Houston Center
10:21 30.2706 -97.3961 279° West 315 362 28,700 1,140 Climbing Houston Center
10:22 30.2869 -97.4972 281° West 315 362 29,900 1,200 Climbing Houston Center
10:23 30.3014 -97.5981 279° West 318 366 31,200 1,200 Climbing Houston Center
10:25 30.3139 -97.6925 279° West 301 346 32,400 1,140 Climbing Houston Center
10:26 30.3275 -97.7922 279° West 308 354 33,600 1,140 Climbing Houston Center
10:27 30.3419 -97.8881 280° West 302 348 34,800 1,140 Climbing Houston Center
10:28 30.3542 -97.9794 279° West 289 333 36,000 540 Climbing Houston Center
10:29 30.3703 -98.0900 280° West 297 342 36,000  Level Houston Center
10:30 30.3839 -98.1925 279° West 316 364 36,000  Level Houston Center
10:31 30.3992 -98.2997 279° West 331 381 36,000  Level Houston Center
10:32 30.4144 -98.4081 279° West 336 387 36,000  Level Houston Center
10:33 30.4281 -98.5172 278° West 339 390 36,000  Level Houston Center
10:34 30.4433 -98.6258 279° West 338 389 36,000  Level Houston Center
10:35 30.4572 -98.7347 278° West 339 390 36,000  Level Houston Center
10:36 30.4750 -98.8614 279° West 339 390 36,000  Level Houston Center
10:37 30.4889 -98.9700 278° West 339 390 36,000  Level Houston Center
10:38 30.5050 -99.0786 280° West 338 389 36,000  Level Houston Center
10:39 30.5197 -99.1925 279° West 338 389 36,000  Level Houston Center
10:40 30.5344 -99.3000 279° West 339 390 36,000  Level Houston Center
10:41 30.5478 -99.4067 278° West 337 388 36,000  Level Houston Center
10:42 30.5608 -99.5136 278° West 336 387 36,000  Level Houston Center
10:43 30.5753 -99.6214 279° West 338 389 36,000  Level Houston Center
10:44 30.5903 -99.7492 278° West 336 387 36,000  Level Houston Center
10:45 30.6069 -99.8556 280° West 336 387 36,000  Level Houston Center
10:46 30.6292 -99.9622 284° West 341 392 36,000  Level Houston Center
10:47 30.6500 -100.0672 283° West 337 388 36,000  Level Houston Center
10:48 30.6708 -100.1739 283° West 340 391 36,000  Level Houston Center
10:49 30.6972 -100.3008 284° West 338 389 36,000  Level Houston Center
10:50 30.7178 -100.4069 283° West 338 389 36,000  Level Houston Center
10:51 30.7386 -100.5133 283° West 339 390 36,000  Level Houston Center
10:52 30.7597 -100.6189 283° West 338 389 36,000  Level Houston Center
10:53 30.7806 -100.7247 283° West 337 388 36,000  Level Houston Center
10:55 30.8011 -100.8300 283° West 336 387 36,000  Level Houston Center
10:56 30.8256 -100.9586 283° West 339 390 36,000  Level Houston Center
10:57 30.8461 -101.0647 283° West 339 390 36,000  Level Houston Center
10:58 30.8658 -101.1725 282° West 341 392 36,000  Level Houston Center
10:59 30.8886 -101.2786 284° West 340 391 36,000  Level Houston Center
11:00 30.9078 -101.3867 282° West 340 391 36,000  Level Houston Center
11:01 30.9319 -101.5164 282° West 342 394 36,000  Level Houston Center
11:02 30.9533 -101.6233 283° West 342 394 36,000  Level Houston Center
11:03 30.9742 -101.7317 283° West 342 394 36,000  Level Houston Center
11:04 30.9950 -101.8417 282° West 345 397 36,000  Level Houston Center
11:05 31.0131 -101.9514 281° West 345 397 36,000  Level Houston Center
11:06 31.0333 -102.0597 282° West 345 397 36,000  Level Houston Center
11:07 31.0581 -102.1917 282° West 346 398 36,000  Level Houston Center
11:08 31.0797 -102.3008 283° West 347 399 36,000  Level Houston Center
11:09 31.0994 -102.4119 282° West 349 402 36,000  Level Houston Center
11:10 31.1197 -102.5225 282° West 349 402 36,000  Level Houston Center
11:11 31.1397 -102.6361 282° West 352 405 36,000  Level Houston Center
11:12 31.1586 -102.7483 281° West 354 407 36,000  Level Houston Center
11:13 31.1831 -102.8847 282° West 356 410 36,000  Level Houston Center
11:14 31.2019 -102.9992 281° West 358 412 36,000  Level Houston Center
11:15 31.2219 -103.1125 282° West 358 412 36,000  Level Houston Center
11:16 31.2428 -103.2267 282° West 359 413 36,000  Level Houston Center
11:17 31.2625 -103.3417 281° West 360 414 36,000  Level Houston Center
11:19 31.2917 -103.4972 282° West 362 417 36,000  Level Albuquerque Center
11:20 31.3122 -103.6128 282° West 363 418 36,000  Level Albuquerque Center
11:21 31.3328 -103.7286 282° West 365 420 36,000  Level Albuquerque Center
11:22 31.3533 -103.8442 282° West 365 420 36,000  Level Albuquerque Center
11:23 31.3764 -103.9836 281° West 366 421 36,000  Level Albuquerque Center
11:24 31.3961 -104.1000 281° West 366 421 36,000  Level Albuquerque Center
11:25 31.4156 -104.2178 281° West 367 422 36,000  Level Albuquerque Center
11:26 31.4356 -104.3344 281° West 369 425 36,000 -300 Level Albuquerque Center
11:27 31.4547 -104.4511 281° West 368 423 35,400 -1,320 Descending Albuquerque Center
11:28 31.4664 -104.5689 277° West 367 422 33,300 -2,100 Descending Albuquerque Center
11:29 31.4814 -104.7047 277° West 356 410 31,100 -1,860 Descending Albuquerque Center
11:30 31.4917 -104.8228 276° West 361 415 29,500 -1,800 Descending Albuquerque Center
11:31 31.5047 -104.9486 277° West 382 440 27,400 -2,040 Descending Albuquerque Center
11:32 31.5192 -105.0819 277° West 407 468 25,300 -2,160 Descending Albuquerque Center
11:33 31.5325 -105.2156 277° West 416 479 23,000 -2,460 Descending Albuquerque Center
11:34 31.5394 -105.3106 275° West 407 468 21,400 -2,460 Descending Albuquerque Center
11:34 31.5461 -105.3681 278° West 398 458 20,500 -1,980 Descending Albuquerque Center
11:35 31.5592 -105.4956 277° West 397 457 18,500 -2,040 Descending Albuquerque Center
11:36 31.5703 -105.6189 276° West 383 441 16,300 -2,220 Descending Albuquerque Center
11:37 31.5831 -105.7378 277° West 372 428 14,000 -2,040 Descending Albuquerque Center
11:38 31.6108 -105.8450 287° West 350 403 12,200 -1,680 Descending Albuquerque Center
11:39 31.6628 -105.9469 301° West 297 342 10,500 -1,860 Descending Albuquerque Center
11:40 31.7000 -106.0250 299° West 277 319 8,400 -1,320 Descending Albuquerque Center
11:41 31.7344 -106.0931 301° West 243 280 7,800 -900 Descending Albuquerque Center
11:42 31.7572 -106.1650 290° West 236 272 6,600 -1,200 Descending Albuquerque Center